RH
86 84 82 78 76 79 76 78 76 75 75 75 74 74 78 85 82 53 41 40 38 47 55 68 64 48 41 37 31 24 28 31 30 31 24 18 19 13 11 14 15 15 17 20 33
88 86 84 80 77 76 76 76 77 77 76 75 74 74 76 79 68 42 58 65 64 53 68 58 54 46 41 39 36 41 42 35 23 22 22 20 18 16 17 18 18 17 29 31 42
91 89 88 83 78 78 77 78 79 78 77 76 75 75 75 72 52 44 64 63 74 61 53 50 44 46 65 39 36 38 49 27 23 20 19 21 20 18 20 22 17 20 29 39 40
90 90 91 86 80 81 79 80 80 79 77 76 77 76 76 58 48 56 54 51 59 59 56 53 42 50 68 68 38 41 33 33 27 20 23 27 20 19 20 21 16 16 22 38 42
96 91 91 88 81 84 82 84 82 80 79 77 78 77 67 49 44 36 39 40 44 51 56 55 53 50 64 58 47 39 33 29 26 24 23 24 26 20 21 18 17 17 25 36 38
99 96 91 90 84 85 88 88 81 81 80 79 78 76 59 63 34 36 36 43 40 41 44 48 65 43 50 56 53 36 33 30 27 26 24 26 27 23 23 21 19 18 26 32 34
100 99 94 91 86 88 90 84 82 83 81 80 78 68 52 49 35 37 39 39 40 38 35 40 48 74 54 57 42 45 44 32 30 30 27 25 31 28 19 21 20 19 21 28 30
100 100 96 90 90 90 90 86 85 82 79 78 74 63 59 40 40 41 41 40 37 34 31 35 41 55 81 55 47 41 49 57 34 30 30 27 39 25 19 20 24 20 19 23 27
100 99 100 98 96 91 90 89 86 78 72 69 62 55 52 39 36 37 42 40 42 38 39 36 33 53 68 75 69 54 52 51 44 28 31 31 36 24 18 18 24 22 18 18 23
100 100 100 100 96 91 91 91 76 67 52 43 45 70 52 40 37 43 42 42 39 34 34 39 44 74 79 82 87 55 50 34 35 31 30 34 33 25 19 17 20 21 20 17 21
100 100 100 100 99 94 88 65 41 37 38 32 33 52 30 30 21 20 19 28 30 35 48 35 55 88 67 67 56 41 38 37 28 24 31 34 32 28 21 17 18 21 21 18 17
100 98 100 100 98 96 80 61 44 45 50 32 29 27 26 28 38 30 33 25 23 28 30 44 48 37 44 44 63 56 50 36 27 24 29 33 33 28 23 20 15 17 21 19 16
98 96 100 100 100 93 80 72 64 60 53 30 24 30 34 33 41 39 33 35 38 33 26 30 34 28 34 44 54 64 63 50 49 29 37 40 37 30 25 20 16 14 16 18 18
93 99 100 100 99 91 91 75 65 64 65 35 36 39 40 40 50 34 30 38 41 43 32 26 20 29 31 40 47 69 54 53 62 62 78 47 69 35 27 24 20 16 14 14 17
93 100 100 92 96 93 86 72 69 76 91 23 38 36 25 31 20 25 24 33 36 36 37 46 27 27 36 35 30 64 50 52 56 82 60 46 53 36 26 29 24 19 18 16 14
99 100 100 95 91 94 79 63 75 79 88 29 40 48 27 20 18 15 17 23 27 36 35 37 32 30 35 37 29 29 58 59 68 64 95 67 60 40 29 25 22 19 17 16 14
100 100 100 94 96 91 70 61 89 90 29 26 31 26 26 22 19 19 30 36 32 43 48 35 35 34 28 62 41 35 64 97 97 97 92 50 53 41 24 20 17 18 16 15 14
100 100 100 94 92 83 61 90 93 62 49 24 25 27 28 26 26 34 33 29 21 24 44 63 51 26 28 43 68 37 85 83 91 73 81 54 69 41 26 22 18 16 16 15 14
99 100 100 100 93 77 84 94 79 67 44 30 29 32 32 37 50 42 34 27 25 41 74 78 48 34 27 33 53 59 64 83 97 84 50 35 34 28 25 25 23 23 18 17 15
96 97 98 99 95 90 96 85 67 59 43 36 46 34 51 37 45 58 49 25 26 37 84 72 84 34 30 39 41 53 41 94 98 96 88 35 36 35 25 29 26 27 24 21 18
91 99 99 100 98 99 92 76 65 70 55 44 41 41 41 47 50 60 61 42 40 48 68 97 82 42 41 56 52 60 70 63 98 82 92 58 39 23 22 24 27 26 25 22 20
96 99 100 100 100 96 84 76 67 77 49 46 46 47 42 36 55 59 57 46 45 48 57 56 97 72 47 36 58 74 97 93 91 95 70 90 31 16 17 22 24 25 25 24 24
100 100 100 98 94 92 94 85 70 77 54 50 47 42 37 49 74 64 56 38 52 48 76 62 85 85 50 61 74 93 75 83 79 61 92 76 39 20 19 19 24 24 24 26 26
100 96 100 100 87 87 93 82 90 72 64 56 52 41 47 55 54 84 60 46 37 38 43 61 75 87 90 95 95 90 85 91 98 72 65 58 36 24 21 23 24 26 25 22 27
100 96 62 96 95 90 95 90 88 88 60 50 52 48 54 88 52 46 38 49 41 35 53 68 66 52 51 42 50 85 92 92 96 94 98 59 54 20 19 22 23 25 26 25 25
98 99 100 95 76 90 94 88 86 84 89 56 56 44 46 66 46 50 40 44 56 48 67 74 71 50 44 30 42 54 48 82 88 80 75 70 45 19 16 22 21 23 27 26 26
99 99 100 97 96 95 80 69 89 89 80 50 42 45 44 37 29 30 34 39 40 60 74 71 65 59 50 30 36 45 51 44 77 70 67 74 41 17 17 19 20 23 25 26 24
Wind_Speed
19 19 19 20 21 20 20 19 20 21 20 22 24 25 26 27 30 27 24 27 20 23 33 24 19 14 14 17 20 15 16 19 25 23 18 10 10 13 15 16 17 11 11 3 27
21 20 20 21 22 22 21 21 22 21 22 22 23 23 26 28 31 30 11 10 21 25 17 22 21 18 14 16 15 19 15 26 22 19 18 12 11 12 12 15 17 15 4 19 26
22 23 22 23 22 22 22 22 23 23 23 24 24 23 24 24 20 7 12 18 19 17 25 25 22 16 19 19 22 22 24 19 23 19 17 16 11 11 14 17 19 19 15 20 23
24 24 24 23 24 24 23 23 24 25 24 24 24 23 22 17 8 10 7 22 16 3 15 19 20 23 16 24 25 25 26 25 27 18 15 18 18 18 13 17 16 20 22 22 23
28 26 25 25 24 24 25 24 24 26 25 26 23 21 19 12 22 30 28 15 11 7 14 17 21 21 27 17 23 29 26 26 23 23 24 17 20 19 17 11 11 8 23 23 22
32 30 28 26 25 24 24 24 26 27 26 26 24 21 19 27 13 15 17 9 13 13 11 14 8 21 22 27 28 24 28 26 25 24 22 24 23 21 20 14 16 9 17 20 22
36 34 32 28 26 24 23 23 25 28 28 27 24 22 20 28 14 15 19 30 27 21 18 17 14 10 11 22 26 25 26 23 26 27 27 20 29 30 23 18 15 15 15 19 22
44 38 36 32 27 23 21 21 23 28 30 27 25 21 16 15 18 23 18 18 19 19 20 21 14 12 7 12 17 22 25 22 30 23 26 24 28 25 26 24 21 18 18 19 22
50 46 41 33 27 21 18 19 23 28 31 26 18 13 13 2 11 10 10 12 10 12 14 14 9 8 10 18 15 16 23 33 30 27 24 28 29 24 22 27 25 21 19 19 20
47 51 46 34 27 17 13 16 24 24 15 12 11 3 11 9 4 7 7 10 10 10 12 12 7 7 12 16 22 28 32 31 30 29 27 30 27 25 21 28 29 25 22 20 20
48 45 45 38 26 13 8 10 7 7 9 8 7 13 21 15 24 23 25 21 15 12 12 12 12 19 36 30 29 28 30 33 26 24 26 29 26 26 27 23 27 22 24 24 22
48 44 46 33 21 13 4 3 5 3 10 17 21 21 27 19 9 11 6 9 13 19 15 15 24 36 29 26 26 31 33 33 26 25 20 23 28 24 25 28 27 27 26 25 22
43 42 28 28 20 12 8 4 3 2 6 9 4 5 2 10 9 6 4 6 12 16 18 24 27 24 27 30 32 30 31 29 26 21 19 19 24 20 26 28 26 25 25 27 26
40 34 33 30 14 14 6 9 3 2 5 4 5 6 6 3 6 12 13 6 7 11 16 21 27 27 27 30 32 29 32 26 26 19 11 21 13 28 23 24 26 25 25 25 25
38 35 35 32 23 9 12 9 5 4 4 4 5 4 2 6 9 2 7 9 18 20 18 23 15 21 28 33 31 32 26 28 29 19 19 19 11 22 23 28 27 26 26 24 23
35 32 38 23 18 17 16 10 6 3 6 3 4 5 6 8 11 9 13 13 16 22 23 26 24 27 22 24 31 29 25 28 22 23 19 17 18 14 20 26 26 26 26 26 25
29 34 27 27 11 22 17 7 4 4 3 4 5 3 10 16 13 11 11 12 12 16 19 21 25 25 29 21 22 30 23 14 11 12 12 30 21 20 17 21 22 21 23 26 24
21 30 21 21 29 24 17 3 6 4 6 1 4 10 14 8 6 6 12 16 18 16 14 17 19 23 23 31 12 28 22 13 9 19 16 21 17 24 30 28 23 22 21 22 24
36 22 16 29 28 23 4 3 4 4 4 4 7 13 9 4 3 8 12 13 13 3 6 6 14 16 14 20 22 22 21 16 17 18 18 18 23 18 26 22 30 15 22 22 21
18 8 11 31 25 13 2 4 5 5 4 5 5 5 5 8 7 5 8 8 6 3 3 5 10 12 17 11 20 30 17 9 6 6 11 18 27 15 24 23 21 25 18 19 20
15 4 12 25 18 2 4 5 4 5 10 6 8 10 9 12 9 13 7 14 7 10 7 5 7 12 12 9 17 15 21 19 6 14 3 9 17 18 17 24 21 23 26 19 17
4 3 14 25 4 3 6 5 6 6 12 10 5 10 15 16 10 11 14 8 8 7 10 13 4 8 19 16 5 6 6 11 14 7 15 7 3 10 14 13 17 19 12 13 12
3 2 9 5 5 7 2 4 8 8 11 8 8 10 10 11 6 13 13 8 5 6 4 6 4 6 7 5 6 3 8 18 20 19 14 14 6 6 3 6 6 11 8 11 12
4 4 2 3 6 7 7 10 7 12 12 12 10 13 13 14 14 7 8 5 4 12 11 6 6 10 10 7 5 9 14 15 8 17 20 22 28 14 6 6 9 7 9 8 7
1 5 7 6 11 14 7 7 13 9 11 12 11 19 15 5 9 15 16 9 11 12 5 4 8 13 12 18 10 13 15 13 9 8 9 16 20 22 14 10 7 9 8 8 9
4 3 2 4 11 20 13 13 16 11 6 12 17 13 16 15 14 17 16 14 10 9 2 2 5 14 17 17 7 12 18 16 13 16 15 16 26 23 14 15 11 8 8 6 8
4 2 1 4 4 9 16 17 15 14 12 17 14 15 17 16 15 15 12 12 14 13 12 6 5 8 10 13 16 15 4 11 8 10 11 13 24 18 21 16 7 9 6 5 8
Wind_Direction
312 311 314 315 315 315 315 317 320 320 320 321 319 319 318 320 318 305 284 269 266 262 252 258 271 251 228 228 229 229 245 243 246 248 257 256 273 251 231 247 241 198 261 78 150
298 300 301 306 307 308 311 313 316 317 317 317 318 320 320 322 313 297 319 313 280 242 236 227 233 231 218 226 225 227 231 240 247 259 254 261 232 262 211 228 223 201 103 137 156
290 290 289 295 297 299 303 305 309 310 312 316 318 320 322 323 304 184 38 7 351 220 230 242 247 243 249 231 222 226 239 248 245 262 254 256 254 243 261 243 223 208 177 161 168
286 283 279 284 290 290 292 297 302 306 306 310 314 318 321 316 292 168 1 346 347 204 226 241 233 231 238 235 230 237 239 242 259 263 250 256 261 249 241 249 248 211 178 173 177
272 273 271 272 277 280 285 288 293 298 301 304 309 314 316 288 254 269 297 313 330 336 231 222 237 234 233 240 237 235 240 246 249 250 259 242 250 250 241 243 257 293 157 178 189
266 266 267 265 269 272 277 282 291 293 295 297 302 307 289 271 278 273 279 281 306 305 296 295 289 233 241 231 246 235 240 246 248 253 241 248 246 245 239 248 252 218 187 190 195
264 262 260 259 261 265 270 276 285 290 292 294 297 294 271 254 282 281 278 286 286 276 277 270 295 299 245 247 247 249 257 251 236 242 246 239 245 241 243 240 224 211 219 206 203
265 257 253 251 252 258 265 271 280 286 289 293 294 280 261 273 276 270 270 269 279 266 251 261 278 294 261 275 256 241 239 245 240 234 238 232 246 239 234 231 231 232 214 207 208
268 259 251 244 246 251 261 274 283 286 288 291 280 232 267 270 261 281 259 253 298 287 260 249 233 240 257 233 250 239 236 228 240 232 227 224 239 241 240 229 232 231 231 209 209
288 264 251 238 237 239 256 281 286 284 283 267 250 276 244 260 325 315 271 269 280 297 294 221 204 243 235 225 223 221 226 234 230 225 230 233 236 236 234 239 224 225 226 222 205
296 289 249 232 221 220 249 304 258 227 235 263 262 237 284 264 310 281 263 268 269 268 263 224 212 222 226 225 236 240 239 236 240 245 221 233 234 232 232 237 237 214 226 225 208
298 301 254 212 197 187 214 243 294 349 287 268 263 264 267 270 280 277 223 231 234 249 254 234 230 228 238 237 242 241 248 245 249 238 246 241 235 229 235 229 233 224 223 226 217
300 303 241 190 173 173 191 220 170 233 270 290 239 251 255 192 231 260 242 197 249 260 243 243 244 245 239 235 237 233 240 244 255 242 244 250 244 231 228 229 229 230 229 222 222
304 300 191 164 149 149 148 181 196 242 287 199 201 199 173 228 241 227 233 260 253 261 247 256 260 256 247 236 234 236 231 231 251 233 232 221 243 226 221 222 227 225 227 230 225
304 297 168 167 128 125 140 153 186 216 297 117 153 110 197 252 329 114 176 265 269 267 261 251 257 241 246 246 236 242 237 234 229 239 244 229 235 238 208 222 223 219 226 226 229
305 184 159 137 117 134 136 149 167 187 241 179 165 208 259 249 277 259 262 262 266 272 267 263 265 267 258 267 239 245 240 246 233 244 235 213 215 235 225 208 218 217 217 221 221
308 177 152 138 128 140 137 142 131 217 123 183 229 228 287 294 301 284 276 282 268 284 272 274 253 242 248 258 256 231 231 233 196 235 218 208 223 222 233 220 220 212 215 214 213
175 141 131 131 140 141 141 135 205 179 236 168 265 280 284 318 294 290 281 283 269 276 280 271 273 255 219 221 252 218 217 214 232 217 218 211 214 226 223 256 231 222 211 212 214
136 120 119 142 147 150 149 194 210 185 269 280 281 271 272 214 246 310 271 273 279 265 257 307 268 325 274 199 215 235 226 249 260 290 243 217 225 212 220 228 235 243 206 214 219
126 90 134 147 151 149 185 224 199 184 274 257 272 280 266 302 310 255 287 290 289 207 152 304 297 288 264 232 235 231 236 201 232 258 219 231 204 212 211 207 214 214 211 219 220
90 94 145 149 138 170 223 212 180 197 227 236 266 260 270 270 262 282 269 295 344 325 291 259 245 283 305 223 240 234 232 233 292 212 290 214 216 205 221 190 204 205 217 209 201
69 94 160 151 183 209 224 184 165 187 221 238 263 275 269 270 263 261 266 274 2 330 308 299 280 273 271 272 306 233 305 276 237 217 214 285 172 167 214 174 199 207 204 202 209
78 100 179 168 217 213 166 186 184 186 203 219 227 224 238 261 276 239 261 280 270 319 313 334 293 307 257 112 50 341 320 319 255 221 241 209 192 177 112 194 148 183 155 174 184
132 146 150 229 266 263 197 209 202 214 224 227 246 243 255 262 253 269 285 294 296 299 302 293 296 327 312 346 336 298 313 311 331 229 230 231 245 190 192 139 159 149 161 191 177
115 197 185 194 224 226 212 197 206 198 210 212 236 240 242 226 266 266 266 280 311 290 306 17 282 296 307 298 273 269 284 289 300 297 253 211 254 220 191 131 131 169 144 162 175
162 186 184 275 220 206 198 209 218 199 202 213 228 220 227 236 250 278 287 282 276 296 325 304 280 311 300 289 273 284 263 253 266 282 280 251 240 244 244 123 120 125 149 153 161
173 139 159 182 200 197 212 221 210 197 224 240 229 236 243 250 268 280 293 286 277 271 286 277 294 321 291 314 319 279 304 233 212 250 276 260 228 234 217 248 187 136 163 162 153